Time,TemperatureF,DewpointF,PressureIn,WindDirection,WindDirectionDegrees,WindSpeedMPH,WindSpeedGustMPH,Humidity,HourlyPrecipIn,Conditions,Clouds,dailyrainin,SoftwareType,DateUTC
2013-04-11 00:13:00,73.0,-99.9,29.77,North,-999,-999.0,-999.0,-999,-99.99,,,-99.99,,2013-04-11 05:13:00,
2013-04-11 00:42:00,60.0,-99.9,29.78,North,-999,-999.0,-999.0,-999,-99.99,,,-99.99,,2013-04-11 05:42:00,
2013-04-11 00:53:00,59.0,-99.9,-100.00,North,-999,-999.0,-999.0,-999,-99.99,,,-99.99,,2013-04-11 05:53:00,
2013-04-11 01:02:00,59.0,-99.9,-100.00,North,-999,-999.0,-999.0,-999,-99.99,,,-99.99,,2013-04-11 06:02:00,
2013-04-11 01:12:00,58.0,-99.9,-100.00,North,-999,-999.0,-999.0,-999,-99.99,,,-99.99,,2013-04-11 06:12:00,
2013-04-11 01:22:00,56.0,-99.9,-100.00,North,-999,-999.0,-999.0,-999,-99.99,,,-99.99,,2013-04-11 06:22:00,
2013-04-11 01:42:00,55.0,-99.9,29.80,North,-999,-999.0,-999.0,-999,-99.99,,,-99.99,,2013-04-11 06:42:00,
2013-04-11 01:53:00,55.0,-99.9,-100.00,North,-999,-999.0,-999.0,-999,-99.99,,,-99.99,,2013-04-11 06:53:00,
2013-04-11 02:12:00,54.0,-99.9,29.79,North,-999,-999.0,-999.0,-999,-99.99,,,-99.99,,2013-04-11 07:12:00,
2013-04-11 02:22:00,53.0,-99.9,-100.00,North,-999,-999.0,-999.0,-999,-99.99,,,-99.99,,2013-04-11 07:22:00,
2013-04-11 02:43:00,53.0,-99.9,29.78,North,-999,-999.0,-999.0,-999,-99.99,,,-99.99,,2013-04-11 07:43:00,
2013-04-11 03:03:00,53.0,-99.9,-100.00,North,-999,-999.0,-999.0,-999,-99.99,,,-99.99,,2013-04-11 08:03:00,
2013-04-11 03:12:00,53.0,-99.9,29.77,North,-999,-999.0,-999.0,-999,-99.99,,,-99.99,,2013-04-11 08:12:00,
2013-04-11 03:43:00,53.0,-99.9,29.77,North,-999,-999.0,-999.0,-999,-99.99,,,-99.99,,2013-04-11 08:43:00,
2013-04-11 03:52:00,53.0,-99.9,-100.00,North,-999,-999.0,-999.0,-999,-99.99,,,-99.99,,2013-04-11 08:52:00,
2013-04-11 04:02:00,52.0,-99.9,29.76,North,-999,-999.0,-999.0,-999,-99.99,,,-99.99,,2013-04-11 09:02:00,
2013-04-11 04:12:00,52.0,-99.9,29.76,North,-999,-999.0,-999.0,-999,-99.99,,,-99.99,,2013-04-11 09:12:00,
2013-04-11 04:22:00,52.0,-99.9,-100.00,North,-999,-999.0,-999.0,-999,-99.99,,,-99.99,,2013-04-11 09:22:00,
2013-04-11 04:33:00,52.0,-99.9,29.76,North,-999,-999.0,-999.0,-999,-99.99,,,-99.99,,2013-04-11 09:33:00,
2013-04-11 04:43:00,52.0,-99.9,29.76,North,-999,-999.0,-999.0,-999,-99.99,,,-99.99,,2013-04-11 09:43:00,
2013-04-11 04:53:00,51.0,-99.9,29.75,North,-999,-999.0,-999.0,-999,-99.99,,,-99.99,,2013-04-11 09:53:00,
2013-04-11 05:13:00,51.0,-99.9,29.75,North,-999,-999.0,-999.0,-999,-99.99,,,-99.99,,2013-04-11 10:13:00,
2013-04-11 05:32:00,51.0,-99.9,29.74,North,-999,-999.0,-999.0,-999,-99.99,,,-99.99,,2013-04-11 10:32:00,
2013-04-11 05:42:00,51.0,-99.9,29.74,North,-999,-999.0,-999.0,-999,-99.99,,,-99.99,,2013-04-11 10:42:00,
2013-04-11 05:53:00,51.0,-99.9,29.74,North,-999,-999.0,-999.0,-999,-99.99,,,-99.99,,2013-04-11 10:53:00,
2013-04-11 06:03:00,51.0,-99.9,29.76,North,-999,-999.0,-999.0,-999,-99.99,,,-99.99,,2013-04-11 11:03:00,
2013-04-11 06:13:00,50.0,-99.9,-100.00,North,-999,-999.0,-999.0,-999,-99.99,,,-99.99,,2013-04-11 11:13:00,
2013-04-11 06:32:00,49.0,-99.9,-100.00,North,-999,-999.0,-999.0,-999,-99.99,,,-99.99,,2013-04-11 11:32:00,
2013-04-11 06:43:00,50.0,-99.9,29.73,North,-999,-999.0,-999.0,-999,-99.99,,,-99.99,,2013-04-11 11:43:00,
2013-04-11 06:53:00,50.0,-99.9,-100.00,North,-999,-999.0,-999.0,-999,-99.99,,,-99.99,,2013-04-11 11:53:00,
2013-04-11 07:13:00,50.0,-99.9,29.77,North,-999,-999.0,-999.0,-999,-99.99,,,-99.99,,2013-04-11 12:13:00,
2013-04-11 07:23:00,50.0,-99.9,-100.00,North,-999,-999.0,-999.0,-999,-99.99,,,-99.99,,2013-04-11 12:23:00,
2013-04-11 07:43:00,49.0,-99.9,29.77,North,-999,-999.0,-999.0,-999,-99.99,,,-99.99,,2013-04-11 12:43:00,
2013-04-11 08:03:00,49.0,-99.9,-100.00,North,-999,-999.0,-999.0,-999,-99.99,,,-99.99,,2013-04-11 13:03:00,
2013-04-11 08:13:00,49.0,-99.9,-100.00,North,-999,-999.0,-999.0,-999,-99.99,,,-99.99,,2013-04-11 13:13:00,
2013-04-11 08:33:00,49.0,-99.9,-100.00,North,-999,-999.0,-999.0,-999,-99.99,,,-99.99,,2013-04-11 13:33:00,
2013-04-11 08:43:00,48.0,-99.9,29.82,North,-999,-999.0,-999.0,-999,-99.99,,,-99.99,,2013-04-11 13:43:00,
2013-04-11 08:54:00,48.0,-99.9,-100.00,North,-999,-999.0,-999.0,-999,-99.99,,,-99.99,,2013-04-11 13:54:00,
2013-04-11 09:03:00,48.0,-99.9,-100.00,North,-999,-999.0,-999.0,-999,-99.99,,,-99.99,,2013-04-11 14:03:00,
2013-04-11 09:13:00,48.0,-99.9,29.85,North,-999,-999.0,-999.0,-999,-99.99,,,-99.99,,2013-04-11 14:13:00,
2013-04-11 09:22:00,48.0,-99.9,-100.00,North,-999,-999.0,-999.0,-999,-99.99,,,-99.99,,2013-04-11 14:22:00,
2013-04-11 09:43:00,48.0,-99.9,29.85,North,-999,-999.0,-999.0,-999,-99.99,,,-99.99,,2013-04-11 14:43:00,
2013-04-11 10:03:00,48.0,-99.9,-100.00,North,-999,-999.0,-999.0,-999,-99.99,,,-99.99,,2013-04-11 15:03:00,
2013-04-11 10:12:00,48.0,-99.9,29.88,North,-999,-999.0,-999.0,-999,-99.99,,,-99.99,,2013-04-11 15:12:00,
2013-04-11 10:32:00,48.0,-99.9,-100.00,North,-999,-999.0,-999.0,-999,-99.99,,,-99.99,,2013-04-11 15:32:00,
2013-04-11 10:43:00,48.0,-99.9,29.88,North,-999,-999.0,-999.0,-999,-99.99,,,-99.99,,2013-04-11 15:43:00,
2013-04-11 11:13:00,48.0,-99.9,29.90,North,-999,-999.0,-999.0,-999,-99.99,,,-99.99,,2013-04-11 16:13:00,
2013-04-11 11:33:00,48.0,-99.9,-100.00,North,-999,-999.0,-999.0,-999,-99.99,,,-99.99,,2013-04-11 16:33:00,
2013-04-11 11:42:00,48.0,-99.9,29.86,North,-999,-999.0,-999.0,-999,-99.99,,,-99.99,,2013-04-11 16:42:00,
2013-04-11 11:53:00,47.0,-99.9,-100.00,North,-999,-999.0,-999.0,-999,-99.99,,,-99.99,,2013-04-11 16:53:00,
2013-04-11 12:03:00,48.0,-99.9,-100.00,North,-999,-999.0,-999.0,-999,-99.99,,,-99.99,,2013-04-11 17:03:00,
2013-04-11 12:13:00,48.0,-99.9,29.84,North,-999,-999.0,-999.0,-999,-99.99,,,-99.99,,2013-04-11 17:13:00,
2013-04-11 12:23:00,48.0,-99.9,29.84,North,-999,-999.0,-999.0,-999,-99.99,,,-99.99,,2013-04-11 17:23:00,
2013-04-11 12:33:00,49.0,-99.9,-100.00,North,-999,-999.0,-999.0,-999,-99.99,,,-99.99,,2013-04-11 17:33:00,
2013-04-11 12:43:00,49.0,-99.9,29.80,North,-999,-999.0,-999.0,-999,-99.99,,,-99.99,,2013-04-11 17:43:00,
2013-04-11 13:04:00,50.0,-99.9,-100.00,North,-999,-999.0,-999.0,-999,-99.99,,,-99.99,,2013-04-11 18:04:00,
2013-04-11 13:13:00,51.0,-99.9,-100.00,North,-999,-999.0,-999.0,-999,-99.99,,,-99.99,,2013-04-11 18:13:00,
2013-04-11 13:43:00,52.0,-99.9,29.85,North,-999,-999.0,-999.0,-999,-99.99,,,-99.99,,2013-04-11 18:43:00,
2013-04-11 13:53:00,53.0,-99.9,-100.00,North,-999,-999.0,-999.0,-999,-99.99,,,-99.99,,2013-04-11 18:53:00,
2013-04-11 14:04:00,54.0,-99.9,-100.00,North,-999,-999.0,-999.0,-999,-99.99,,,-99.99,,2013-04-11 19:04:00,
2013-04-11 14:14:00,55.0,-99.9,29.82,North,-999,-999.0,-999.0,-999,-99.99,,,-99.99,,2013-04-11 19:14:00,
2013-04-11 14:23:00,57.0,-99.9,-100.00,North,-999,-999.0,-999.0,-999,-99.99,,,-99.99,,2013-04-11 19:23:00,
2013-04-11 14:43:00,58.0,-99.9,29.82,North,-999,-999.0,-999.0,-999,-99.99,,,-99.99,,2013-04-11 19:43:00,
2013-04-11 15:13:00,59.0,-99.9,29.81,North,-999,-999.0,-999.0,-999,-99.99,,,-99.99,,2013-04-11 20:13:00,
2013-04-11 15:23:00,60.0,-99.9,-100.00,North,-999,-999.0,-999.0,-999,-99.99,,,-99.99,,2013-04-11 20:23:00,
2013-04-11 15:34:00,60.0,-99.9,-100.00,North,-999,-999.0,-999.0,-999,-99.99,,,-99.99,,2013-04-11 20:34:00,
2013-04-11 15:43:00,60.0,-99.9,29.80,North,-999,-999.0,-999.0,-999,-99.99,,,-99.99,,2013-04-11 20:43:00,
2013-04-11 16:04:00,61.0,-99.9,-100.00,North,-999,-999.0,-999.0,-999,-99.99,,,-99.99,,2013-04-11 21:04:00,
2013-04-11 16:13:00,61.0,-99.9,-100.00,North,-999,-999.0,-999.0,-999,-99.99,,,-99.99,,2013-04-11 21:13:00,
2013-04-11 16:34:00,63.0,-99.9,-100.00,North,-999,-999.0,-999.0,-999,-99.99,,,-99.99,,2013-04-11 21:34:00,
2013-04-11 16:43:00,63.0,-99.9,29.79,North,-999,-999.0,-999.0,-999,-99.99,,,-99.99,,2013-04-11 21:43:00,
2013-04-11 16:54:00,63.0,-99.9,-100.00,North,-999,-999.0,-999.0,-999,-99.99,,,-99.99,,2013-04-11 21:54:00,
2013-04-11 17:13:00,64.0,-99.9,29.78,North,-999,-999.0,-999.0,-999,-99.99,,,-99.99,,2013-04-11 22:13:00,
2013-04-11 17:44:00,65.0,-99.9,29.79,North,-999,-999.0,-999.0,-999,-99.99,,,-99.99,,2013-04-11 22:44:00,
2013-04-11 17:53:00,65.0,-99.9,-100.00,North,-999,-999.0,-999.0,-999,-99.99,,,-99.99,,2013-04-11 22:53:00,
2013-04-11 18:13:00,65.0,-99.9,29.79,North,-999,-999.0,-999.0,-999,-99.99,,,-99.99,,2013-04-11 23:13:00,
2013-04-11 18:23:00,65.0,-99.9,-100.00,North,-999,-999.0,-999.0,-999,-99.99,,,-99.99,,2013-04-11 23:23:00,
2013-04-11 18:43:00,65.0,-99.9,29.79,North,-999,-999.0,-999.0,-999,-99.99,,,-99.99,,2013-04-11 23:43:00,
2013-04-11 18:54:00,65.0,-99.9,-100.00,North,-999,-999.0,-999.0,-999,-99.99,,,-99.99,,2013-04-11 23:54:00,
2013-04-11 19:12:00,65.0,-99.9,29.80,North,-999,-999.0,-999.0,-999,-99.99,,,-99.99,,2013-04-12 00:12:00,
2013-04-11 19:33:00,64.0,-99.9,-100.00,North,-999,-999.0,-999.0,-999,-99.99,,,-99.99,,2013-04-12 00:33:00,
2013-04-11 19:43:00,64.0,-99.9,29.81,North,-999,-999.0,-999.0,-999,-99.99,,,-99.99,,2013-04-12 00:43:00,
2013-04-11 19:53:00,64.0,-99.9,-100.00,North,-999,-999.0,-999.0,-999,-99.99,,,-99.99,,2013-04-12 00:53:00,
2013-04-11 20:03:00,63.0,-99.9,-100.00,North,-999,-999.0,-999.0,-999,-99.99,,,-99.99,,2013-04-12 01:03:00,
2013-04-11 20:12:00,63.0,-99.9,29.82,North,-999,-999.0,-999.0,-999,-99.99,,,-99.99,,2013-04-12 01:12:00,
2013-04-11 20:33:00,63.0,-99.9,-100.00,North,-999,-999.0,-999.0,-999,-99.99,,,-99.99,,2013-04-12 01:33:00,
2013-04-11 20:43:00,62.0,-99.9,-100.00,North,-999,-999.0,-999.0,-999,-99.99,,,-99.99,,2013-04-12 01:43:00,
2013-04-11 21:12:00,62.0,-99.9,29.84,North,-999,-999.0,-999.0,-999,-99.99,,,-99.99,,2013-04-12 02:12:00,
2013-04-11 21:42:00,61.0,-99.9,29.86,North,-999,-999.0,-999.0,-999,-99.99,,,-99.99,,2013-04-12 02:42:00,
2013-04-11 21:53:00,61.0,-99.9,-100.00,North,-999,-999.0,-999.0,-999,-99.99,,,-99.99,,2013-04-12 02:53:00,
2013-04-11 22:12:00,60.0,-99.9,29.87,North,-999,-999.0,-999.0,-999,-99.99,,,-99.99,,2013-04-12 03:12:00,
2013-04-11 22:22:00,61.0,-99.9,-100.00,North,-999,-999.0,-999.0,-999,-99.99,,,-99.99,,2013-04-12 03:22:00,
2013-04-11 22:43:00,59.0,-99.9,29.88,North,-999,-999.0,-999.0,-999,-99.99,,,-99.99,,2013-04-12 03:43:00,
2013-04-11 23:03:00,57.0,-99.9,-100.00,North,-999,-999.0,-999.0,-999,-99.99,,,-99.99,,2013-04-12 04:03:00,
2013-04-11 23:13:00,57.0,-99.9,-100.00,North,-999,-999.0,-999.0,-999,-99.99,,,-99.99,,2013-04-12 04:13:00,
2013-04-11 23:43:00,59.0,-99.9,29.89,North,-999,-999.0,-999.0,-999,-99.99,,,-99.99,,2013-04-12 04:43:00,
2013-04-11 23:53:00,59.0,-99.9,-100.00,North,-999,-999.0,-999.0,-999,-99.99,,,-99.99,,2013-04-12 04:53:00,